When you browse on this site, cookies collect data to enhance your experience and personalize the content and advertising you see.
Visit our Privacy Policy to learn more. By continuing to use the site, you agree to this use of cookies and data.
EN

Hourly Weather Lavrovka

Today, 24 September, Thursday

Time Temperature Precipitation Wind Pressure Humidity
00:00 +15°C° 0 mm 2 mps 759 mmHg 65%
01:00 +15°C° 0 mm 2 mps 759 mmHg 68%
02:00 +15°C° 0 mm 2 mps 760 mmHg 71%
03:00 +14°C° 0 mm 2 mps 760 mmHg 75%
04:00 +13°C° 0 mm 3 mps 761 mmHg 76%
05:00 +13°C° 0 mm 3 mps 761 mmHg 78%
06:00 +13°C° 0 mm 3 mps 761 mmHg 79%
07:00 +14°C° 0 mm 3 mps 761 mmHg 74%
08:00 +17°C° 0 mm 4 mps 762 mmHg 68%
09:00 +18°C° 0 mm 4 mps 762 mmHg 63%
10:00 +19°C° 0 mm 4 mps 762 mmHg 58%
11:00 +20°C° 0 mm 4 mps 762 mmHg 53%
12:00 +22°C° 0 mm 4 mps 762 mmHg 49%
13:00 +22°C° 0 mm 4 mps 762 mmHg 48%
14:00 +22°C° 0 mm 4 mps 762 mmHg 47%
15:00 +22°C° 0 mm 4 mps 762 mmHg 46%
16:00 +21°C° 0 mm 4 mps 762 mmHg 47%
17:00 +19°C° 0 mm 4 mps 762 mmHg 49%
18:00 +18°C° 0 mm 3 mps 762 mmHg 50%
19:00 +18°C° 0 mm 4 mps 762 mmHg 51%
20:00 +17°C° 0 mm 4 mps 762 mmHg 51%
21:00 +15°C° 0 mm 4 mps 763 mmHg 52%
22:00 +15°C° 0 mm 4 mps 763 mmHg 52%
23:00 +14°C° 0 mm 4 mps 762 mmHg 51%

Tomorrow, 25 September, Friday

Time Temperature Precipitation Wind Pressure Humidity
00:00 +14°C° 0 mm 4 mps 762 mmHg 50%
01:00 +13°C° 0 mm 4 mps 763 mmHg 51%
02:00 +13°C° 0 mm 4 mps 763 mmHg 52%
03:00 +13°C° 0 mm 3 mps 763 mmHg 52%
04:00 +12°C° 0 mm 3 mps 763 mmHg 54%
05:00 +12°C° 0 mm 3 mps 763 mmHg 55%
06:00 +11°C° 0 mm 3 mps 763 mmHg 57%
07:00 +13°C° 0 mm 4 mps 763 mmHg 53%
08:00 +14°C° 0 mm 4 mps 763 mmHg 48%
09:00 +17°C° 0 mm 4 mps 763 mmHg 44%
10:00 +17°C° 0 mm 5 mps 763 mmHg 40%
11:00 +19°C° 0 mm 5 mps 763 mmHg 36%
12:00 +21°C° 0 mm 5 mps 763 mmHg 32%
13:00 +21°C° 0 mm 5 mps 762 mmHg 31%
14:00 +21°C° 0 mm 5 mps 762 mmHg 30%
15:00 +21°C° 0 mm 5 mps 762 mmHg 30%
16:00 +20°C° 0 mm 4 mps 762 mmHg 33%
17:00 +18°C° 0 mm 4 mps 762 mmHg 37%
18:00 +17°C° 0 mm 4 mps 762 mmHg 40%
19:00 +15°C° 0 mm 4 mps 762 mmHg 42%
20:00 +14°C° 0 mm 4 mps 762 mmHg 45%
21:00 +14°C° 0 mm 4 mps 762 mmHg 47%
22:00 +13°C° 0 mm 4 mps 762 mmHg 48%
23:00 +13°C° 0 mm 4 mps 762 mmHg 49%

Day after tomorrow, 26 September, Saturday

Time Temperature Precipitation Wind Pressure Humidity
00:00 +13°C° 0 mm 4 mps 762 mmHg 50%
01:00 +13°C° 0 mm 4 mps 762 mmHg 51%
02:00 +13°C° 0 mm 4 mps 762 mmHg 52%
03:00 +12°C° 0 mm 4 mps 762 mmHg 54%
04:00 +12°C° 0 mm 4 mps 762 mmHg 54%
05:00 +12°C° 0 mm 4 mps 762 mmHg 55%
06:00 +12°C° 0 mm 4 mps 762 mmHg 56%
07:00 +14°C° 0 mm 4 mps 762 mmHg 50%
08:00 +15°C° 0 mm 5 mps 762 mmHg 44%
09:00 +17°C° 0 mm 5 mps 763 mmHg 38%
10:00 +20°C° 0 mm 6 mps 763 mmHg 35%
11:00 +21°C° 0 mm 6 mps 763 mmHg 32%
12:00 +23°C° 0 mm 6 mps 763 mmHg 29%
13:00 +23°C° 0 mm 6 mps 763 mmHg 28%
14:00 +23°C° 0 mm 6 mps 763 mmHg 28%
15:00 +24°C° 0 mm 6 mps 763 mmHg 27%
16:00 +22°C° 0 mm 6 mps 763 mmHg 30%
17:00 +20°C° 0 mm 5 mps 763 mmHg 33%
18:00 +17°C° 0 mm 5 mps 763 mmHg 35%
19:00 +16°C° 0 mm 5 mps 764 mmHg 37%
20:00 +15°C° 0 mm 5 mps 764 mmHg 38%
21:00 +14°C° 0 mm 5 mps 765 mmHg 39%
22:00 +14°C° 0 mm 5 mps 765 mmHg 41%
23:00 +13°C° 0 mm 4 mps 765 mmHg 44%

27 September, Sunday

Time Temperature Precipitation Wind Pressure Humidity
00:00 +12°C° 0 mm 4 mps 765 mmHg 46%
01:00 +12°C° 0 mm 4 mps 765 mmHg 47%
02:00 +11°C° 0 mm 4 mps 765 mmHg 49%
03:00 +11°C° 0 mm 4 mps 765 mmHg 51%
04:00 +11°C° 0 mm 4 mps 765 mmHg 51%
05:00 +10°C° 0 mm 4 mps 765 mmHg 52%
06:00 +10°C° 0 mm 4 mps 765 mmHg 53%
07:00 +12°C° 0 mm 5 mps 766 mmHg 48%
08:00 +13°C° 0 mm 5 mps 766 mmHg 43%
09:00 +15°C° 0 mm 6 mps 766 mmHg 38%
10:00 +16°C° 0 mm 6 mps 766 mmHg 35%
11:00 +17°C° 0 mm 7 mps 766 mmHg 31%
12:00 +18°C° 0 mm 7 mps 766 mmHg 28%
13:00 +18°C° 0 mm 7 mps 766 mmHg 28%
14:00 +20°C° 0 mm 7 mps 765 mmHg 29%
15:00 +20°C° 0 mm 7 mps 765 mmHg 29%
16:00 +17°C° 0 mm 6 mps 765 mmHg 31%
17:00 +16°C° 0 mm 5 mps 765 mmHg 34%
18:00 +14°C° 0 mm 5 mps 765 mmHg 36%
19:00 +14°C° 0 mm 5 mps 765 mmHg 37%
20:00 +13°C° 0 mm 5 mps 765 mmHg 39%
21:00 +12°C° 0 mm 5 mps 765 mmHg 40%
22:00 +12°C° 0 mm 5 mps 765 mmHg 42%
23:00 +11°C° 0 mm 4 mps 766 mmHg 43%

28 September, Monday

Time Temperature Precipitation Wind Pressure Humidity
00:00 +11°C° 0 mm 4 mps 766 mmHg 45%
01:00 +11°C° 0 mm 4 mps 766 mmHg 45%
02:00 +11°C° 0 mm 4 mps 766 mmHg 46%
03:00 +9°C° 0 mm 5 mps 766 mmHg 47%
04:00 +9°C° 0 mm 5 mps 766 mmHg 47%
05:00 +9°C° 0 mm 5 mps 766 mmHg 47%
06:00 +9°C° 0 mm 5 mps 766 mmHg 47%
07:00 +10°C° 0 mm 5 mps 766 mmHg 44%
08:00 +13°C° 0 mm 6 mps 766 mmHg 41%
09:00 +14°C° 0 mm 6 mps 766 mmHg 38%
10:00 +15°C° 0 mm 6 mps 766 mmHg 35%
11:00 +16°C° 0 mm 6 mps 766 mmHg 31%
12:00 +17°C° 0 mm 6 mps 766 mmHg 28%
13:00 +17°C° 0 mm 6 mps 766 mmHg 28%
14:00 +17°C° 0 mm 6 mps 766 mmHg 28%
15:00 +19°C° 0 mm 6 mps 766 mmHg 28%
16:00 +17°C° 0 mm 5 mps 766 mmHg 31%
17:00 +17°C° 0 mm 4 mps 766 mmHg 33%
18:00 +16°C° 0 mm 3 mps 766 mmHg 35%
19:00 +14°C° 0 mm 3 mps 766 mmHg 37%
20:00 +14°C° 0 mm 3 mps 766 mmHg 38%
21:00 +13°C° 0 mm 3 mps 766 mmHg 40%
22:00 +13°C° 0 mm 3 mps 766 mmHg 40%
23:00 +13°C° 0 mm 3 mps 766 mmHg 41%

29 September, Tuesday

Time Temperature Precipitation Wind Pressure Humidity
00:00 +12°C° 0 mm 4 mps 766 mmHg 42%
01:00 +12°C° 0 mm 3 mps 766 mmHg 43%
02:00 +12°C° 0 mm 3 mps 766 mmHg 45%
03:00 +11°C° 0 mm 3 mps 766 mmHg 46%
04:00 +11°C° 0 mm 4 mps 766 mmHg 47%
05:00 +11°C° 0 mm 4 mps 766 mmHg 47%
06:00 +10°C° 0 mm 4 mps 766 mmHg 48%
07:00 +12°C° 0 mm 4 mps 766 mmHg 44%
08:00 +13°C° 0 mm 5 mps 766 mmHg 40%
09:00 +15°C° 0 mm 5 mps 766 mmHg 36%
10:00 +16°C° 0 mm 5 mps 766 mmHg 33%
11:00 +17°C° 0 mm 6 mps 766 mmHg 30%
12:00 +19°C° 0 mm 6 mps 765 mmHg 27%
13:00 +20°C° 0 mm 6 mps 765 mmHg 27%
14:00 +20°C° 0 mm 6 mps 765 mmHg 27%
15:00 +20°C° 0 mm 6 mps 764 mmHg 27%
16:00 +17°C° 0 mm 5 mps 764 mmHg 30%
17:00 +16°C° 0 mm 5 mps 764 mmHg 34%
18:00 +14°C° 0 mm 4 mps 764 mmHg 37%
19:00 +14°C° 0 mm 4 mps 764 mmHg 38%
20:00 +13°C° 0 mm 5 mps 764 mmHg 40%
21:00 +13°C° 0 mm 5 mps 763 mmHg 41%
22:00 +13°C° 0 mm 5 mps 763 mmHg 42%
23:00 +12°C° 0 mm 5 mps 763 mmHg 42%
Show more